Flag for Germany Weather past 2 weeks in Heidelberg, Baden-Württemberg, Germany

Now
84 °F

Sunny.


Feels Like: 82 °F
Forecast: 62 / 90 °F
Wind: 5 mph from North

Location: Baden Wurttemberg - Neuostheim

Current Time: Jun 30, 2015 at 3:42:57 PM

Latest Report: Jun 30, 2015 at 2:50 PM


Visibility: 10 mi

Pressure: 30.12 "Hg

Humidity: 31%

Dew point: 50 °F

Location of HeidelbergLocation

Historic Weather in Heidelberg — Graph

°F

Heidelberg temperature yesterday

Maximum temperature yesterday: 84 °F (at 4:20 PM)
Minimum temperature yesterday: 63 °F (at 6:20 AM)
Average temperature yesterday: 76 °F

Past Weeks' High & Low Weather Summary

 TemperatureHumidityPressure
High84 °F (Jun 29, 4:20 PM)100% (Jun 18, 10:20 AM)30.27 "Hg (Jun 18, 10:20 AM)
Low50 °F (Jun 17, 5:20 AM)27% (Jun 17, 5:50 PM)29.74 "Hg (Jun 22, 9:20 PM)
Average66 °F60%30.09 "Hg
* Reported Jun 15 1:20 PM — Jun 30 1:50 PM, Heidelberg, Weather by CustomWeather, © 2015

Note: Actual official high and low records may vary slightly from our data, if they occured in-between our weather recording intervals... More about our weather records

Advertising

Heidelberg weather history for previous 24 hours

 ConditionsComfort  
Time TempWeatherWind HumidityBarometerVisibility
1:50 PM
Tue, Jun 30
82 °FPassing clouds.7 mph30%30.12 "HgN/A
1:20 PM81 °FSunny.3 mph37%30.15 "Hg10 mi
12:50 PM81 °FPassing clouds.5 mph39%30.15 "HgN/A
12:20 PM79 °FPassing clouds.6 mph42%30.15 "HgN/A
11:50 AM79 °FPassing clouds.6 mph42%30.15 "HgN/A
11:20 AM77 °FPassing clouds.7 mph47%30.15 "HgN/A
10:50 AM77 °FSunny.5 mph47%30.15 "Hg10 mi
10:20 AM75 °FPassing clouds.5 mph50%30.15 "HgN/A
9:50 AM75 °FPassing clouds.6 mph50%30.15 "HgN/A
9:20 AM73 °FPassing clouds.5 mph53%30.15 "HgN/A
8:50 AM72 °FPassing clouds.5 mph53%30.15 "HgN/A
8:20 AM70 °FPassing clouds.5 mph57%30.15 "HgN/A
7:50 AM68 °FPassing clouds.5 mph60%30.15 "HgN/A
7:20 AM66 °FSunny.3 mph68%30.15 "Hg10 mi
6:50 AM64 °FSunny.3 mph68%30.15 "Hg10 mi
6:20 AM63 °FClear.3 mph73%30.15 "Hg10 mi
5:50 AM63 °FClear.3 mph73%30.15 "Hg10 mi
9:50 PM
Mon, Jun 29
77 °FSunny.9 mph47%30.12 "Hg10 mi
9:20 PM79 °FSunny.10 mph48%30.12 "Hg10 mi
8:50 PM81 °FPassing clouds.6 mph42%30.12 "HgN/A
8:20 PM82 °FPassing clouds.5 mph40%30.09 "HgN/A
7:50 PM84 °FSunny.2 mph37%30.09 "Hg10 mi
7:20 PM82 °FPassing clouds.5 mph42%30.09 "HgN/A
6:50 PM82 °FPassing clouds.5 mph40%30.09 "HgN/A
6:20 PM84 °FPassing clouds.5 mph37%30.09 "HgN/A
5:50 PM84 °FPassing clouds.6 mph37%30.09 "HgN/A
5:20 PM84 °FSunny.3 mph37%30.09 "Hg10 mi
4:50 PM84 °FPassing clouds.6 mph37%30.09 "HgN/A
4:20 PM84 °FPleasantly warm.6 mph33%30.12 "HgN/A
3:50 PM82 °FSunny.6 mph37%30.12 "Hg10 mi
3:20 PM82 °FPassing clouds.6 mph35%30.12 "HgN/A
Weather by CustomWeather, © 2015

See weather overviewHow to use our weather pages